Weather History for MMLP - January, 2014

Change the Weather History Date:

Saturday, January 25, 2014

  Actual Average Record
Temperature  
Mean Temperature 73 °F -  
Max Temperature 82 °F 76 °F 86 °F (2013)
Min Temperature 64 °F 53 °F 42 °F (2007)
Cooling Degree Days 8    
Growing Degree Days 23 (Base 50)    
Moisture  
Dew Point 51 °F    
Average Humidity 44    
Maximum Humidity 73    
Minimum Humidity 27    
Precipitation  
Precipitation 0.00 in - - ()
Sea Level Pressure  
Sea Level Pressure 30.07 in    
Wind  
Wind Speed 5 mph ()    
Max Wind Speed 12 mph    
Max Gust Speed -    
Visibility 9.2 miles    
Events      
Averages and records for this station are not official NWS values.
T = Trace of Precipitation, MM = Missing Value Source: Averaged Metar Reports

Daily Weather History Graph

Daily Weather History Graph

Search for Another Location

Airport or City:

Trip Planner

Search our weather history database for the weather conditions in past years. The results will help you decide how hot, cold, wet, or windy it might be!

Date:

Astronomy

Jan. 25, 2014 Rise Set
Actual Time 7:05 AM MST 6:02 PM MST
Civil Twilight 6:41 AM MST 6:26 PM MST
Nautical Twilight 6:13 AM MST 6:54 PM MST
Astronomical Twilight 5:46 AM MST 7:21 PM MST
Moon 1:43 AM MST (1/25) 1:05 PM MST (1/25)
Length of Visible Light 11h 45m
Length of Day
10h 57m
Waning Crescent, 33% of the Moon is Illuminated
Jan 25
Waning Crescent
Jan 30
New
Feb 6
First Quarter
Feb 14
Full
Feb 22
Last Quarter

Hourly Weather History & Observations

Time (MST) Temp. Dew Point Humidity Pressure Visibility Wind Dir Wind Speed Gust Speed Precip Events Conditions
1:45 AM 69 °F 52 °F 44% 30.10 in 2 mi ENE 2.2 mph - -   Scattered Clouds
4:50 AM 67 °F 51 °F 46% 30.08 in 2 mi East 2.2 mph - -   Mostly Cloudy
5:40 AM 62.6 °F 50.0 °F 63% 30.08 in 10.0 mi Calm Calm - N/A   Mostly Cloudy
7:41 AM 60.8 °F 50.0 °F 68% 30.11 in 10.0 mi Calm Calm - N/A   Partly Cloudy
7:50 AM 70 °F 50 °F 38% 30.11 in 12 mi NE 2.2 mph - -  
8:40 AM 71.6 °F 46.4 °F 41% 30.12 in 10.0 mi NNE 4.6 mph - N/A   Partly Cloudy
9:40 AM 75.2 °F 48.2 °F 38% 30.14 in 10.0 mi North 9.2 mph - N/A   Clear
10:42 AM 77.0 °F 46.4 °F 34% 30.14 in 10.0 mi North 9.2 mph - N/A   Clear
10:50 AM 80 °F 55 °F 31% 30.22 in 19 mi NNE 4.5 mph - -  
11:45 AM 78.8 °F 51.8 °F 39% 30.12 in 10.0 mi North 9.2 mph - N/A   Clear
12:42 PM 78.8 °F 50.0 °F 36% 30.08 in 10.0 mi North 10.4 mph - N/A   Clear
1:40 PM 78.8 °F 48.2 °F 34% 30.06 in 10.0 mi North 11.5 mph - N/A   Clear
1:50 PM 83 °F 54 °F 27% 30.06 in 19 mi North 6.7 mph - -  
2:53 PM 78.8 °F 48.2 °F 34% 30.05 in 10.0 mi North 11.5 mph - N/A   Clear
3:45 PM 77.0 °F 50.0 °F 39% 30.04 in 10.0 mi North 11.5 mph - N/A   Clear
4:50 PM 80 °F 56 °F 34% 29.74 in 2 mi NW 4.5 mph - -  
4:54 PM 75.2 °F 53.6 °F 47% 30.04 in 10.0 mi North 9.2 mph - N/A   Clear
5:52 PM 75.2 °F 48.2 °F 38% 30.04 in 10.0 mi NNE 9.2 mph - N/A   Clear
6:47 PM 73.4 °F 48.2 °F 41% 30.05 in 10.0 mi NE 9.2 mph - N/A   Clear
7:50 PM 74 °F 52 °F 36% 30.04 in 2 mi NE 6.7 mph - -  
7:51 PM 69.8 °F 51.8 °F 53% 30.05 in 10.0 mi North 5.8 mph - N/A   Clear
8:48 PM 69.8 °F 55.4 °F 60% 30.06 in 10.0 mi Calm Calm - N/A   Clear
9:52 PM 66.2 °F 55.4 °F 68% 30.06 in 10.0 mi NW 5.8 mph - N/A   Clear
10:42 PM 66.2 °F 57.2 °F 73% 30.06 in 10.0 mi Calm Calm - N/A   Clear
10:45 PM 72 °F 56 °F 47% 30.04 in 2 mi NNE 4.5 mph - -